Location: Newark
(36.1358°N, 115.1208°W)
Time: 18:45:45
(UTC+00:00)

Altair - Visible Passes

Search period start: 16 February 2020 00:00
Search period end: 26 February 2020 00:00
Orbit: 1502 x 1682 km, 47.2° (Epoch: 16 February)

Date Brightness Start Highest point End Pass type
(mag) Time Alt. Az. Time Alt. Az. Time Alt. Az.
16 Feb 8.1 10:46:10 50° NE 10:46:10 50° NE 10:53:15 10° NE visible
16 Feb 8.2 12:44:11 26° WNW 12:49:28 44° N 12:59:01 10° ENE visible
17 Feb 8.5 10:22:17 40° NE 10:22:17 40° NE 10:28:00 10° NE visible
17 Feb 8.1 12:20:18 33° NW 12:24:08 45° N 12:33:40 10° ENE visible
18 Feb 8.8 09:58:23 31° NE 09:58:23 31° NE 10:02:46 10° NE visible
18 Feb 8.0 11:56:24 40° NW 11:58:48 45° N 12:08:20 10° ENE visible
18 Feb 8.2 13:55:53 10° WNW 14:05:29 51° NNE 14:15:19 10° E visible
19 Feb 9.2 09:34:28 23° NE 09:34:28 23° NE 09:37:32 10° NE visible
19 Feb 8.0 11:32:28 45° NNW 11:33:29 46° N 11:43:00 10° ENE visible
19 Feb 8.2 13:30:39 10° WNW 13:40:10 50° NNE 13:49:56 10° E visible
20 Feb 9.5 09:10:32 17° NE 09:10:32 17° NE 09:12:18 10° ENE visible
20 Feb 8.0 11:08:32 47° N 11:08:32 47° N 11:17:42 10° ENE visible
20 Feb 8.2 13:06:32 14° WNW 13:14:51 48° NNE 13:24:32 10° E visible
21 Feb 9.7 08:46:35 12° ENE 08:46:35 12° ENE 08:47:04 10° ENE visible
21 Feb 8.2 10:44:35 45° NNE 10:44:35 45° NNE 10:52:24 10° ENE visible
21 Feb 8.2 12:42:35 19° NW 12:49:30 47° NNE 12:59:09 10° E visible
22 Feb 8.4 10:20:38 39° NNE 10:20:38 39° NNE 10:27:06 10° ENE visible
22 Feb 8.2 12:18:39 25° NW 12:24:11 46° N 12:33:45 10° E visible
23 Feb 8.7 09:56:42 32° NE 09:56:42 32° NE 10:01:49 10° ENE visible
23 Feb 8.2 11:54:42 31° NW 11:58:51 45° N 12:08:22 10° E visible
24 Feb 9.0 09:32:46 26° NE 09:32:46 26° NE 09:36:32 10° ENE visible
24 Feb 8.2 11:30:46 37° NNW 11:33:31 44° N 11:42:58 10° ENE visible
24 Feb 7.9 13:29:47 10° NW 13:39:40 73° NNE 13:49:49 10° ESE visible
25 Feb 9.3 09:08:50 20° NE 09:08:50 20° NE 09:11:18 10° ENE visible
25 Feb 8.1 11:06:51 42° NNW 11:08:11 44° N 11:17:36 10° ENE visible
25 Feb 7.9 13:04:51 11° NW 13:14:25 69° NNE 13:24:31 10° ESE visible
